Morris, IL

8:06 AM CDT on June 25, 2017 (GMT -0500)
Morris

Weather History for KC09 - March, 2013

Change the Weather History Date:

Thursday, March 7, 2013

  Actual Average (KARR) Record (KARR)
Temperature  
Mean Temperature 28 °F -  
Max Temperature 34 °F 37 °F 78 °F (2000)
Min Temperature 22 °F 20 °F -1 °F (1999)
Degree Days  
Heating Degree Days 36    
Moisture  
Dew Point 24 °F    
Average Humidity 79    
Maximum Humidity 91    
Minimum Humidity 62    
Precipitation  
Precipitation 0.00 in - - ()
Sea Level Pressure  
Sea Level Pressure 30.38 in    
Wind  
Wind Speed 4 mph (NW)    
Max Wind Speed 9 mph    
Max Gust Speed -    
Visibility 10 miles    
Events      
Averages and records for this station are not official NWS values.
T = Trace of Precipitation, MM = Missing Value Source: NWS Daily Summary

Daily Weather History Graph

Daily Weather History Graph

Search for Another Location

Airport or City:

Trip Planner

Search our weather history database for the weather conditions in past years. The results will help you decide how hot, cold, wet, or windy it might be!

Date:

Astronomy

Mar. 07, 2013 Rise Set
Actual Time 6:18 AM CST 5:51 PM CST
Civil Twilight 5:50 AM CST 6:19 PM CST
Nautical Twilight 5:18 AM CST 6:51 PM CST
Astronomical Twilight 4:46 AM CST 7:23 PM CST
Moon 3:20 AM CST (3/7) 1:36 PM CST (3/7)
Length of Visible Light 12h 28m
Length of Day
11h 33m
Waning Crescent, 20% of the Moon is Illuminated
Mar 7
Waning Crescent
Mar 11
New
Mar 19
First Quarter
Mar 27
Full
Apr 2
Last Quarter

Hourly Weather History & Observations

Time (CST) Temp. Windchill Dew Point Humidity Pressure Visibility Wind Dir Wind Speed Gust Speed Precip Events Conditions
12:15 AM 28.9 °F 23.9 °F 24.6 °F 84% 30.30 in 10.0 mi WNW 4.6 mph - N/A   Overcast
12:35 AM 28.4 °F 21.2 °F 24.8 °F 86% 30.31 in 10.0 mi WNW 6.9 mph - N/A   Overcast
12:55 AM 28.4 °F 21.2 °F 24.6 °F 86% 30.31 in 10.0 mi WNW 6.9 mph - N/A   Overcast
1:15 AM 28.4 °F 21.2 °F 24.6 °F 86% 30.32 in 10.0 mi West 6.9 mph - N/A   Overcast
1:35 AM 28.4 °F 21.2 °F 24.6 °F 86% 30.33 in 10.0 mi West 6.9 mph - N/A   Overcast
1:55 AM 28.4 °F 20.4 °F 24.6 °F 86% 30.33 in 10.0 mi WNW 8.1 mph - N/A   Overcast
2:15 AM 28.4 °F 20.4 °F 24.6 °F 86% 30.33 in 10.0 mi NW 8.1 mph - N/A   Overcast
2:35 AM 28.4 °F 19.7 °F 24.4 °F 85% 30.33 in 10.0 mi WNW 9.2 mph - N/A   Overcast
2:55 AM 28.4 °F 21.2 °F 24.4 °F 85% 30.33 in 10.0 mi WNW 6.9 mph - N/A   Overcast
3:15 AM 28.2 °F 20.2 °F 24.6 °F 86% 30.34 in 10.0 mi WNW 8.1 mph - N/A   Overcast
3:35 AM 28.2 °F 23.1 °F 24.4 °F 86% 30.34 in 10.0 mi WNW 4.6 mph - N/A   Overcast
3:55 AM 28.0 °F - 24.6 °F 87% 30.34 in 10.0 mi Calm Calm - N/A   Overcast
4:15 AM 28.2 °F - 24.3 °F 85% 30.34 in 10.0 mi Calm Calm - N/A   Overcast
4:35 AM 28.4 °F 22.2 °F 24.3 °F 84% 30.34 in 10.0 mi WNW 5.8 mph - N/A   Overcast
4:55 AM 27.3 °F - 24.3 °F 88% 30.34 in 10.0 mi Calm Calm - N/A   Overcast
5:15 AM 27.5 °F - 24.3 °F 88% 30.34 in 10.0 mi Calm Calm - N/A   Overcast
5:35 AM 27.3 °F 22.0 °F 23.9 °F 87% 30.35 in 10.0 mi WNW 4.6 mph - N/A   Overcast
5:55 AM 27.1 °F 23.2 °F 24.3 °F 89% 30.36 in 10.0 mi West 3.5 mph - N/A   Overcast
6:15 AM 27.9 °F 22.6 °F 23.9 °F 85% 30.36 in 10.0 mi West 4.6 mph - N/A   Overcast
6:35 AM 27.7 °F - 23.9 °F 86% 30.36 in 10.0 mi Calm Calm - N/A   Overcast
6:55 AM 27.7 °F - 23.9 °F 86% 30.36 in 10.0 mi Calm Calm - N/A   Overcast
7:15 AM 27.5 °F - 23.9 °F 86% 30.37 in 10.0 mi Calm Calm - N/A   Overcast
7:35 AM 27.5 °F - 24.3 °F 88% 30.37 in 10.0 mi Calm Calm - N/A   Overcast
7:55 AM 28.0 °F - 24.1 °F 85% 30.38 in 10.0 mi Calm Calm - N/A   Overcast
8:15 AM 28.9 °F 25.2 °F 24.1 °F 82% 30.38 in 10.0 mi WNW 3.5 mph - N/A   Overcast
8:35 AM 29.3 °F - 24.3 °F 81% 30.39 in 10.0 mi Calm Calm - N/A   Overcast
8:55 AM 30.2 °F - 24.1 °F 78% 30.39 in 10.0 mi Calm Calm - N/A   Overcast
9:15 AM 30.9 °F 27.5 °F 24.3 °F 76% 30.40 in 10.0 mi North 3.5 mph - N/A   Overcast
9:35 AM 31.1 °F 27.7 °F 24.8 °F 77% 30.40 in 10.0 mi NW 3.5 mph - N/A   Overcast
9:55 AM 31.1 °F 25.4 °F 25.0 °F 78% 30.40 in 10.0 mi NW 5.8 mph - N/A   Overcast
10:15 AM 32.0 °F 28.7 °F 25.2 °F 76% 30.41 in 10.0 mi WNW 3.5 mph - N/A   Overcast
10:35 AM 32.0 °F - 25.7 °F 78% 30.41 in 10.0 mi Calm Calm - N/A   Overcast
10:55 AM 32.2 °F - 25.3 °F 76% 30.39 in 10.0 mi Calm Calm - N/A   Overcast
11:15 AM 32.9 °F - 25.2 °F 73% 30.39 in 10.0 mi Calm Calm - N/A   Overcast
11:35 AM 33.3 °F 28.9 °F 25.5 °F 73% 30.40 in 10.0 mi WNW 4.6 mph - N/A   Overcast
11:55 AM 34.0 °F 28.0 °F 26.1 °F 73% 30.40 in 10.0 mi WNW 6.9 mph - N/A   Overcast
12:15 PM 34.0 °F 28.0 °F 24.4 °F 68% 30.40 in 10.0 mi West 6.9 mph - N/A   Overcast
12:35 PM 34.0 °F 31.0 °F 22.6 °F 63% 30.39 in 10.0 mi NW 3.5 mph - N/A   Overcast
12:55 PM 34.3 °F 31.4 °F 23.0 °F 63% 30.38 in 10.0 mi WNW 3.5 mph - N/A   Overcast
1:15 PM 34.7 °F 30.6 °F 22.8 °F 62% 30.38 in 10.0 mi NNW 4.6 mph - N/A   Overcast
1:35 PM 34.7 °F 31.8 °F 23.2 °F 63% 30.38 in 10.0 mi NNW 3.5 mph - N/A   Overcast
1:55 PM 34.7 °F 31.8 °F 23.5 °F 64% 30.37 in 10.0 mi NNW 3.5 mph - N/A   Overcast
2:15 PM 34.5 °F 29.4 °F 23.2 °F 63% 30.37 in 10.0 mi WNW 5.8 mph - N/A   Overcast
2:35 PM 34.7 °F - 23.2 °F 63% 30.38 in 10.0 mi Calm Calm - N/A   Overcast
2:55 PM 34.2 °F 30.0 °F 24.1 °F 67% 30.38 in 10.0 mi NW 4.6 mph - N/A   Overcast
3:15 PM 33.8 °F 28.6 °F 24.4 °F 69% 30.38 in 10.0 mi WNW 5.8 mph - N/A   Mostly Cloudy
3:35 PM 33.8 °F 28.6 °F 24.6 °F 69% 30.39 in 10.0 mi NW 5.8 mph - N/A   Scattered Clouds
3:55 PM 34.0 °F 28.8 °F 24.6 °F 69% 30.39 in 10.0 mi NW 5.8 mph - N/A   Clear
4:15 PM 34.0 °F 29.8 °F 23.5 °F 66% 30.39 in 10.0 mi NW 4.6 mph - N/A   Clear
4:35 PM 33.8 °F 30.8 °F 23.9 °F 67% 30.39 in 10.0 mi WNW 3.5 mph - N/A   Clear
4:55 PM 33.6 °F - 24.1 °F 68% 30.38 in 10.0 mi Calm Calm - N/A   Clear
5:15 PM 33.8 °F - 23.0 °F 65% 30.37 in 10.0 mi Calm Calm - N/A   Clear
5:35 PM 32.0 °F - 23.0 °F 69% 30.38 in 10.0 mi Calm Calm - N/A   Clear
5:55 PM 32.5 °F - 23.0 °F 68% 30.39 in 10.0 mi Calm Calm - N/A   Clear
7:35 PM 30.6 °F - 23.4 °F 75% 30.40 in 10.0 mi Calm Calm - N/A   Clear
7:55 PM 28.4 °F - 23.0 °F 80% 30.40 in 10.0 mi Calm Calm - N/A   Clear
8:15 PM 28.9 °F - 22.6 °F 77% 30.40 in 10.0 mi Calm Calm - N/A   Clear
8:35 PM 26.6 °F - 23.0 °F 86% 30.40 in 10.0 mi Calm Calm - N/A   Clear
8:55 PM 27.7 °F - 22.3 °F 80% 30.40 in 10.0 mi Calm Calm - N/A   Clear
9:15 PM 26.1 °F - 21.7 °F 84% 30.41 in 10.0 mi Calm Calm - N/A   Clear
9:35 PM 26.6 °F - 22.1 °F 83% 30.40 in 10.0 mi Calm Calm - N/A   Clear
9:55 PM 25.9 °F - 21.7 °F 84% 30.41 in 10.0 mi Calm Calm - N/A   Clear
10:15 PM 25.2 °F - 21.2 °F 85% 30.41 in 10.0 mi Calm Calm - N/A   Clear
10:35 PM 23.5 °F - 20.1 °F 87% 30.41 in 10.0 mi Calm Calm - N/A   Clear
10:55 PM 23.9 °F 19.5 °F 20.7 °F 87% 30.41 in 10.0 mi NNE 3.5 mph - N/A   Clear
11:15 PM 23.9 °F 19.5 °F 20.7 °F 87% 30.40 in 7.0 mi NE 3.5 mph - N/A   Clear
11:35 PM 23.7 °F 19.3 °F 20.7 °F 88% 30.41 in 7.0 mi NNE 3.5 mph - N/A   Clear
11:55 PM 22.6 °F 18.0 °F 20.3 °F 91% 30.41 in 7.0 mi NNE 3.5 mph - N/A   Clear